TimeAKDT,TemperatureF,Dew PointF,Humidity,Sea Level PressureIn,VisibilityMPH,Wind Direction,Wind SpeedMPH,Gust SpeedMPH,PrecipitationIn,Events,Conditions,WindDirDegrees,DateUTC
12:53 AM,52.0,48.0,86,29.13,10.0,SE,10.4,-,N/A,,Overcast,130,2013-09-23 08:53:00
1:53 AM,53.1,45.0,74,29.14,10.0,SE,15.0,-,0.00,Rain,Light Rain,130,2013-09-23 09:53:00
2:53 AM,53.1,46.0,77,29.14,10.0,SE,13.8,-,0.00,,Partly Cloudy,130,2013-09-23 10:53:00
3:53 AM,53.1,43.0,69,29.15,10.0,ESE,13.8,-,N/A,,Scattered Clouds,110,2013-09-23 11:53:00
4:53 AM,53.1,44.1,71,29.15,10.0,SE,17.3,-,N/A,,Overcast,130,2013-09-23 12:53:00
5:53 AM,54.0,44.1,69,29.16,10.0,SE,17.3,-,N/A,,Overcast,130,2013-09-23 13:53:00
6:53 AM,54.0,42.1,64,29.17,10.0,SE,20.7,28.8,N/A,,Overcast,130,2013-09-23 14:53:00
7:53 AM,53.1,45.0,74,29.20,10.0,SE,18.4,31.1,0.02,Rain,Light Rain,140,2013-09-23 15:53:00
8:53 AM,54.0,45.0,72,29.23,10.0,SE,16.1,24.2,0.01,,Overcast,140,2013-09-23 16:53:00
9:53 AM,54.0,45.0,72,29.27,10.0,SSE,12.7,-,0.00,Rain,Light Rain,150,2013-09-23 17:53:00
10:53 AM,52.0,46.9,83,29.31,9.0,ESE,11.5,-,0.03,Rain,Light Rain,120,2013-09-23 18:53:00
11:53 AM,53.1,46.9,80,29.34,10.0,SE,11.5,-,0.03,Rain,Light Rain,130,2013-09-23 19:53:00
12:53 PM,53.1,48.0,83,29.37,10.0,SE,9.2,-,0.01,Rain,Light Rain,130,2013-09-23 20:53:00
1:53 PM,53.1,48.9,86,29.40,10.0,South,8.1,-,0.00,,Overcast,190,2013-09-23 21:53:00
2:04 PM,53.1,48.9,86,29.40,5.0,South,11.5,-,0.00,Rain,Light Rain,190,2013-09-23 22:04:00
2:53 PM,53.1,48.9,86,29.43,5.0,South,9.2,-,0.01,,Overcast,180,2013-09-23 22:53:00
3:14 PM,53.1,48.0,83,29.43,7.0,South,6.9,-,0.02,Rain,Light Rain,170,2013-09-23 23:14:00
3:53 PM,54.0,48.0,80,29.45,10.0,SSW,11.5,-,0.02,,Overcast,200,2013-09-23 23:53:00
4:53 PM,55.0,46.9,74,29.47,10.0,SE,9.2,-,N/A,,Mostly Cloudy,140,2013-09-24 00:53:00
5:53 PM,54.0,45.0,72,29.49,10.0,ESE,10.4,-,N/A,,Mostly Cloudy,120,2013-09-24 01:53:00
6:53 PM,54.0,43.0,66,29.51,10.0,ESE,11.5,-,N/A,,Mostly Cloudy,120,2013-09-24 02:53:00
7:53 PM,52.0,45.0,77,29.54,10.0,ESE,9.2,-,0.00,,Scattered Clouds,120,2013-09-24 03:53:00
8:53 PM,52.0,46.0,80,29.56,10.0,SE,11.5,-,N/A,,Mostly Cloudy,130,2013-09-24 04:53:00
9:53 PM,52.0,45.0,77,29.59,10.0,SE,9.2,-,N/A,,Mostly Cloudy,130,2013-09-24 05:53:00
10:53 PM,53.1,45.0,74,29.61,10.0,SE,9.2,-,N/A,,Overcast,130,2013-09-24 06:53:00
11:53 PM,52.0,45.0,77,29.63,10.0,ESE,9.2,-,N/A,,Mostly Cloudy,120,2013-09-24 07:53:00